When you browse on this site, cookies collect data to enhance your experience and personalize the content and advertising you see.
Visit our Privacy Policy to learn more. By continuing to use the site, you agree to this use of cookies and data.
  • In Italy
  • List of Countries
  • For 7 days
  • Water Temperature
  • Weather Map
  • Weather Widgets
  • user-avatar
    Login

    Hourly Weather Bansko

    Today, 18 August, Sunday

    Time Temperature Precipitation Wind Pressure Humidity
    00:00 +18°C° 0 mm 1 mps 721 mmHg 70%
    01:00 +16°C° 0 mm 1 mps 721 mmHg 72%
    02:00 +16°C° 0 mm 1 mps 721 mmHg 73%
    03:00 +15°C° 0 mm 1 mps 721 mmHg 73%
    04:00 +15°C° 0 mm 1 mps 721 mmHg 74%
    05:00 +15°C° 0 mm 1 mps 721 mmHg 75%
    06:00 +18°C° 0 mm 1 mps 721 mmHg 68%
    07:00 +20°C° 0 mm 1 mps 722 mmHg 61%
    08:00 +22°C° 0 mm 1 mps 722 mmHg 54%
    09:00 +24°C° 0 mm 1 mps 722 mmHg 48%
    10:00 +26°C° 0 mm 1 mps 722 mmHg 42%
    11:00 +28°C° 0 mm 1 mps 722 mmHg 36%
    12:00 +29°C° 0 mm 1 mps 722 mmHg 34%
    13:00 +30°C° 0 mm 2 mps 722 mmHg 31%
    14:00 +31°C° 0 mm 2 mps 722 mmHg 29%
    15:00 +31°C° 0 mm 2 mps 722 mmHg 28%
    16:00 +31°C° 0 mm 2 mps 721 mmHg 28%
    17:00 +31°C° 0 mm 2 mps 721 mmHg 28%
    18:00 +28°C° 0 mm 2 mps 721 mmHg 35%
    19:00 +26°C° 0 mm 2 mps 721 mmHg 41%
    20:00 +23°C° 0 mm 2 mps 721 mmHg 48%
    21:00 +21°C° 0 mm 2 mps 721 mmHg 50%
    22:00 +21°C° 0 mm 1 mps 721 mmHg 53%
    23:00 +20°C° 0 mm 1 mps 721 mmHg 55%

    Tomorrow, 19 August, Monday

    Time Temperature Precipitation Wind Pressure Humidity
    00:00 +20°C° 0 mm 1 mps 722 mmHg 56%
    01:00 +19°C° 0 mm 1 mps 722 mmHg 58%
    02:00 +17°C° 0 mm 0 mps 722 mmHg 59%
    03:00 +17°C° 0 mm 0 mps 722 mmHg 60%
    04:00 +16°C° 0 mm 0 mps 722 mmHg 61%
    05:00 +18°C° 0 mm 1 mps 722 mmHg 62%
    06:00 +20°C° 0 mm 1 mps 722 mmHg 56%
    07:00 +22°C° 0 mm 1 mps 722 mmHg 51%
    08:00 +24°C° 0 mm 1 mps 723 mmHg 45%
    09:00 +26°C° 0 mm 1 mps 723 mmHg 41%
    10:00 +28°C° 0 mm 1 mps 723 mmHg 36%
    11:00 +31°C° 0 mm 2 mps 723 mmHg 31%
    12:00 +31°C° 0 mm 2 mps 723 mmHg 30%
    13:00 +32°C° 0 mm 2 mps 723 mmHg 29%
    14:00 +34°C° 0 mm 2 mps 723 mmHg 28%
    15:00 +34°C° 0 mm 2 mps 722 mmHg 28%
    16:00 +34°C° 0 mm 2 mps 722 mmHg 29%
    17:00 +34°C° 0 mm 3 mps 722 mmHg 29%
    18:00 +30°C° 0 mm 2 mps 722 mmHg 36%
    19:00 +27°C° 0 mm 2 mps 722 mmHg 43%
    20:00 +24°C° 0 mm 2 mps 722 mmHg 50%
    21:00 +23°C° 0 mm 2 mps 722 mmHg 53%
    22:00 +22°C° 0 mm 1 mps 722 mmHg 55%
    23:00 +22°C° 0 mm 1 mps 723 mmHg 58%

    Day after tomorrow, 20 August, Tuesday

    Time Temperature Precipitation Wind Pressure Humidity
    00:00 +21°C° 0 mm 1 mps 723 mmHg 60%
    01:00 +21°C° 0 mm 1 mps 723 mmHg 61%
    02:00 +18°C° 0 mm 0 mps 723 mmHg 63%
    03:00 +20°C° 0 mm 1 mps 723 mmHg 63%
    04:00 +20°C° 0 mm 1 mps 723 mmHg 64%
    05:00 +19°C° 0 mm 1 mps 723 mmHg 64%
    06:00 +21°C° 0 mm 1 mps 723 mmHg 58%
    07:00 +23°C° 0 mm 1 mps 724 mmHg 52%
    08:00 +25°C° 0 mm 1 mps 724 mmHg 46%
    09:00 +27°C° 0 mm 1 mps 724 mmHg 41%
    10:00 +29°C° 0 mm 2 mps 724 mmHg 36%
    11:00 +31°C° 0 mm 2 mps 724 mmHg 31%
    12:00 +33°C° 0 mm 3 mps 724 mmHg 29%
    13:00 +34°C° 0 mm 3 mps 724 mmHg 28%
    14:00 +35°C° 0 mm 3 mps 724 mmHg 26%
    15:00 +35°C° 0 mm 3 mps 723 mmHg 27%
    16:00 +35°C° 0 mm 3 mps 723 mmHg 28%
    17:00 +35°C° 0 mm 4 mps 723 mmHg 29%
    18:00 +31°C° 0 mm 3 mps 723 mmHg 37%
    19:00 +28°C° 0 mm 3 mps 723 mmHg 44%
    20:00 +25°C° 0 mm 2 mps 723 mmHg 52%
    21:00 +24°C° 0 mm 2 mps 723 mmHg 53%
    22:00 +23°C° 0 mm 1 mps 724 mmHg 55%
    23:00 +22°C° 0 mm 1 mps 724 mmHg 57%

    21 August, Wednesday

    Time Temperature Precipitation Wind Pressure Humidity
    00:00 +22°C° 0 mm 1 mps 724 mmHg 58%
    01:00 +21°C° 0 mm 1 mps 724 mmHg 59%
    02:00 +21°C° 0 mm 1 mps 723 mmHg 60%
    03:00 +21°C° 0 mm 1 mps 723 mmHg 61%
    04:00 +20°C° 0 mm 1 mps 723 mmHg 63%
    05:00 +20°C° 0 mm 1 mps 723 mmHg 64%
    06:00 +22°C° 0 mm 1 mps 723 mmHg 58%
    07:00 +24°C° 0 mm 1 mps 724 mmHg 52%
    08:00 +25°C° 0 mm 1 mps 724 mmHg 46%
    09:00 +28°C° 0 mm 1 mps 724 mmHg 40%
    10:00 +30°C° 0 mm 2 mps 724 mmHg 35%
    11:00 +32°C° 0 mm 2 mps 724 mmHg 29%
    12:00 +34°C° 0 mm 2 mps 724 mmHg 27%
    13:00 +35°C° 0 mm 2 mps 723 mmHg 25%
    14:00 +36°C° 0 mm 2 mps 723 mmHg 23%
    15:00 +36°C° 0 mm 2 mps 723 mmHg 24%
    16:00 +35°C° 0 mm 3 mps 722 mmHg 25%
    17:00 +35°C° 0 mm 3 mps 722 mmHg 26%
    18:00 +31°C° 0 mm 3 mps 722 mmHg 33%
    19:00 +28°C° 0 mm 3 mps 722 mmHg 40%
    20:00 +25°C° 0 mm 2 mps 722 mmHg 47%
    21:00 +25°C° 0 mm 2 mps 722 mmHg 49%
    22:00 +24°C° 0 mm 1 mps 722 mmHg 52%
    23:00 +23°C° 0 mm 1 mps 722 mmHg 55%

    22 August, Thursday

    Time Temperature Precipitation Wind Pressure Humidity
    00:00 +22°C° 0 mm 1 mps 722 mmHg 57%
    01:00 +22°C° 0 mm 1 mps 722 mmHg 59%
    02:00 +21°C° 0 mm 1 mps 722 mmHg 61%
    03:00 +21°C° 0 mm 1 mps 722 mmHg 62%
    04:00 +21°C° 0 mm 1 mps 722 mmHg 64%
    05:00 +20°C° 0 mm 1 mps 722 mmHg 65%
    06:00 +22°C° 0 mm 1 mps 722 mmHg 59%
    07:00 +24°C° 0 mm 1 mps 723 mmHg 53%
    08:00 +26°C° 0 mm 1 mps 723 mmHg 47%
    09:00 +28°C° 0 mm 2 mps 723 mmHg 41%
    10:00 +31°C° 0 mm 2 mps 723 mmHg 35%
    11:00 +34°C° 0 mm 3 mps 723 mmHg 29%
    12:00 +35°C° 0 mm 3 mps 723 mmHg 27%
    13:00 +36°C° 0 mm 2 mps 723 mmHg 25%
    14:00 +36°C° 0 mm 2 mps 722 mmHg 23%
    15:00 +36°C° 0 mm 3 mps 722 mmHg 25%
    16:00 +35°C° 0 mm 3 mps 722 mmHg 26%
    17:00 +35°C° 0 mm 4 mps 721 mmHg 27%
    18:00 +31°C° 0 mm 3 mps 721 mmHg 33%
    19:00 +29°C° 0 mm 3 mps 721 mmHg 39%
    20:00 +26°C° 0 mm 3 mps 721 mmHg 44%
    21:00 +25°C° 0 mm 2 mps 722 mmHg 45%
    22:00 +24°C° 0 mm 2 mps 722 mmHg 47%
    23:00 +24°C° 0 mm 1 mps 722 mmHg 48%

    23 August, Friday

    Time Temperature Precipitation Wind Pressure Humidity
    00:00 +23°C° 0 mm 1 mps 722 mmHg 49%
    01:00 +23°C° 0 mm 1 mps 722 mmHg 50%
    02:00 +22°C° 0 mm 1 mps 722 mmHg 51%
    03:00 +22°C° 0 mm 1 mps 722 mmHg 52%
    04:00 +21°C° 0 mm 1 mps 722 mmHg 53%
    05:00 +21°C° 0 mm 1 mps 722 mmHg 54%
    06:00 +23°C° 0 mm 1 mps 722 mmHg 50%
    07:00 +25°C° 0 mm 1 mps 723 mmHg 45%
    08:00 +27°C° 0 mm 1 mps 723 mmHg 41%
    09:00 +29°C° 0 mm 2 mps 723 mmHg 37%
    10:00 +31°C° 0 mm 2 mps 723 mmHg 33%
    11:00 +34°C° 0 mm 2 mps 723 mmHg 29%
    12:00 +35°C° 0 mm 2 mps 723 mmHg 29%
    13:00 +35°C° 0 mm 3 mps 723 mmHg 29%
    14:00 +35°C° 0 mm 3 mps 722 mmHg 29%
    15:00 +34°C° 0 mm 3 mps 722 mmHg 32%
    16:00 +33°C° 0 mm 3 mps 722 mmHg 35%
    17:00 +31°C° 0 mm 3 mps 721 mmHg 38%
    18:00 +30°C° 0 mm 3 mps 721 mmHg 43%
    19:00 +28°C° 0 mm 2 mps 721 mmHg 48%
    20:00 +26°C° 0 mm 2 mps 721 mmHg 52%
    21:00 +25°C° 0 mm 2 mps 722 mmHg 55%
    22:00 +25°C° 0 mm 1 mps 722 mmHg 57%
    23:00 +24°C° 0 mm 1 mps 722 mmHg 60%
    Show more